| time (UTC) | temp C | wind direction | speed KPH | gust KPH | rain 1hr cm | rain 24hr cm | rain mn cm | humidity % | barometer mb |
| 20260510164522 | 18 | 93 | 3.2 | 20.9 | 0.00 | 0.00 | 0.00 | 40 | 1031.3 |
| 20260510164021 | 18 | 60 | 6.4 | 20.9 | 0.00 | 0.00 | 0.00 | 40 | 1031.3 |
| 20260510163521 | 18 | 120 | 8.0 | 16.1 | 0.00 | 0.00 | 0.00 | 44 | 1031.3 |
| 20260510163020 | 17 | 93 | 4.8 | 14.5 | 0.00 | 0.00 | 0.00 | 44 | 1031.3 |
| 20260510162521 | 17 | 113 | 4.8 | 12.9 | 0.00 | 0.00 | 0.00 | 45 | 1031.3 |
| 20260510162021 | 17 | 89 | 6.4 | 22.5 | 0.00 | 0.00 | 0.00 | 46 | 1031.3 |
| 20260510161519 | 17 | 136 | 6.4 | 22.5 | 0.00 | 0.00 | 0.00 | 45 | 1031.3 |
| 20260510161020 | 17 | 113 | 6.4 | 19.3 | 0.00 | 0.00 | 0.00 | 45 | 1031.3 |
| 20260510160520 | 17 | 116 | 6.4 | 16.1 | 0.00 | 0.00 | 0.00 | 45 | 1031.3 |
| 20260510160018 | 17 | 111 | 4.8 | 16.1 | 0.00 | 0.00 | 0.00 | 48 | 1031.3 |
| 20260510155523 | 17 | 100 | 6.4 | 16.1 | 0.00 | 0.00 | 0.00 | 46 | 1031.3 |
| 20260510155018 | 17 | 113 | 8.0 | 16.1 | 0.00 | 0.00 | 0.00 | 46 | 1031.3 |
| 20260510154518 | 17 | 133 | 8.0 | 16.1 | 0.00 | 0.00 | 0.00 | 45 | 1031.3 |
| 20260510154018 | 17 | 62 | 3.2 | 14.5 | 0.00 | 0.00 | 0.00 | 50 | 1031.3 |
| 20260510153518 | 17 | 96 | 1.6 | 12.9 | 0.00 | 0.00 | 0.00 | 49 | 1031.3 |
| 20260510153035 | 17 | 113 | 3.2 | 12.9 | 0.00 | 0.00 | 0.00 | 49 | 1031.3 |
| 20260510152517 | 17 | 124 | 3.2 | 14.5 | 0.00 | 0.00 | 0.00 | 51 | 1031.3 |
| 20260510152019 | 16 | 92 | 4.8 | 14.5 | 0.00 | 0.00 | 0.00 | 50 | 1031.3 |
| 20260510151517 | 16 | 149 | 3.2 | 11.3 | 0.00 | 0.00 | 0.00 | 49 | 1031.3 |
| 20260510151017 | 16 | 80 | 3.2 | 14.5 | 0.00 | 0.00 | 0.00 | 51 | 1031.3 |
| 20260510150525 | 16 | 136 | 4.8 | 14.5 | 0.00 | 0.00 | 0.00 | 48 | 1031.3 |
| 20260510150017 | 16 | 107 | 6.4 | 12.9 | 0.00 | 0.00 | 0.00 | 49 | 1031.3 |
| 20260510145516 | 16 | 106 | 1.6 | 11.3 | 0.00 | 0.00 | 0.00 | 51 | 1031.3 |
| 20260510145016 | 16 | 114 | 3.2 | 14.5 | 0.00 | 0.00 | 0.00 | 51 | 1031.3 |
| 20260510144536 | 16 | 105 | 4.8 | 17.7 | 0.00 | 0.00 | 0.00 | 49 | 1031.3 |
| 20260510144015 | 16 | 107 | 8.0 | 17.7 | 0.00 | 0.00 | 0.00 | 50 | 1031.3 |
| 20260510143518 | 16 | 74 | 4.8 | 14.5 | 0.00 | 0.00 | 0.00 | 52 | 1031.3 |
| 20260510143014 | 16 | 75 | 3.2 | 16.1 | 0.00 | 0.00 | 0.00 | 54 | 1031.3 |
| 20260510142525 | 16 | 150 | 8.0 | 16.1 | 0.00 | 0.00 | 0.00 | 54 | 1031.3 |
| 20260510142014 | 16 | 105 | 6.4 | 14.5 | 0.00 | 0.00 | 0.00 | 55 | 1031.3 |
| 20260510141514 | 16 | 116 | 4.8 | 14.5 | 0.00 | 0.00 | 0.00 | 56 | 1031.3 |
| 20260510141014 | 16 | 85 | 3.2 | 14.5 | 0.00 | 0.00 | 0.00 | 57 | 1031.3 |
| 20260510140512 | 16 | 86 | 1.6 | 14.5 | 0.00 | 0.00 | 0.00 | 61 | 1031.3 |
| 20260510140012 | 16 | 118 | 4.8 | 9.7 | 0.00 | 0.00 | 0.00 | 60 | 1031.3 |
| 20260510135512 | 15 | 143 | 0.0 | 11.3 | 0.00 | 0.00 | 0.00 | 63 | 1031.3 |
| 20260510135013 | 15 | 137 | 1.6 | 17.7 | 0.00 | 0.00 | 0.00 | 63 | 1031.3 |
| 20260510134512 | 15 | 129 | 4.8 | 17.7 | 0.00 | 0.00 | 0.00 | 63 | 1031.3 |
| 20260510134017 | 15 | 105 | 4.8 | 17.7 | 0.00 | 0.00 | 0.00 | 64 | 1031.3 |
| 20260510133511 | 15 | 113 | 3.2 | 17.7 | 0.00 | 0.00 | 0.00 | 63 | 1031.3 |
| 20260510133010 | 15 | 78 | 3.2 | 12.9 | 0.00 | 0.00 | 0.00 | 64 | 1031.3 |
| 20260510132510 | 15 | 91 | 3.2 | 8.0 | 0.00 | 0.00 | 0.00 | 66 | 1031.3 |
| 20260510132010 | 15 | 105 | 1.6 | 14.5 | 0.00 | 0.00 | 0.00 | 67 | 1031.3 |
| 20260510131510 | 14 | 129 | 0.0 | 6.4 | 0.00 | 0.00 | 0.00 | 70 | 1031.3 |
| 20260510131013 | 14 | 140 | 1.6 | 12.9 | 0.00 | 0.00 | 0.00 | 69 | 1031.3 |
| 20260510130510 | 14 | 128 | 3.2 | 12.9 | 0.00 | 0.00 | 0.00 | 69 | 1031.3 |
| 20260510130010 | 14 | 101 | 1.6 | 9.7 | 0.00 | 0.00 | 0.00 | 71 | 1031.3 |
| 20260510125509 | 14 | 126 | 1.6 | 12.9 | 0.00 | 0.00 | 0.00 | 71 | 1031.3 |
| 20260510125008 | 14 | 105 | 3.2 | 12.9 | 0.00 | 0.00 | 0.00 | 71 | 1031.3 |
| 20260510124512 | 14 | 94 | 0.0 | 8.0 | 0.00 | 0.00 | 0.00 | 71 | 1031.3 |
| 20260510124012 | 14 | 96 | 1.6 | 8.0 | 0.00 | 0.00 | 0.00 | 71 | 1031.3 |
| 20260510123510 | 14 | 91 | 3.2 | 14.5 | 0.00 | 0.00 | 0.00 | 72 | 1031.3 |
| 20260510123009 | 14 | 139 | 3.2 | 14.5 | 0.00 | 0.00 | 0.00 | 72 | 1031.3 |
| 20260510122506 | 14 | 75 | 1.6 | 8.0 | 0.00 | 0.00 | 0.00 | 75 | 1031.3 |
| 20260510122006 | 14 | 82 | 1.6 | 8.0 | 0.00 | 0.00 | 0.00 | 76 | 1031.3 |
| 20260510121506 | 14 | 91 | 1.6 | 8.0 | 0.00 | 0.00 | 0.00 | 78 | 1031.3 |
| 20260510121006 | 14 | 99 | 0.0 | 4.8 | 0.00 | 0.00 | 0.00 | 79 | 1031.3 |
| 20260510120506 | 15 | 91 | 0.0 | 11.3 | 0.00 | 0.00 | 0.00 | 79 | 1031.3 |
| 20260510120012 | 15 | 76 | 1.6 | 11.3 | 0.00 | 0.00 | 0.00 | 81 | 1031.3 |
| 20260510115506 | 15 | 50 | 1.6 | 11.3 | 0.00 | 0.00 | 0.00 | 81 | 1031.3 |
| 20260510115004 | 15 | 113 | 0.0 | 11.3 | 0.00 | 0.00 | 0.00 | 81 | 1031.3 |
| 20260510114504 | 15 | 84 | 0.0 | 11.3 | 0.00 | 0.00 | 0.00 | 82 | 1031.3 |
| 20260510114004 | 15 | 90 | 1.6 | 11.3 | 0.00 | 0.00 | 0.00 | 83 | 1031.3 |
| 20260510113504 | 15 | 120 | 1.6 | 11.3 | 0.00 | 0.00 | 0.00 | 83 | 1031.3 |
| 20260510113003 | 15 | 37 | 0.0 | 11.3 | 0.00 | 0.00 | 0.00 | 83 | 1031.3 |
| 20260510112503 | 15 | 104 | 1.6 | 9.7 | 0.00 | 0.00 | 0.00 | 84 | 1031.3 |
| 20260510112003 | 15 | 102 | 0.0 | 4.8 | 0.00 | 0.00 | 0.00 | 84 | 1031.3 |
| 20260510111502 | 15 | 85 | 0.0 | 11.3 | 0.00 | 0.00 | 0.00 | 84 | 1031.3 |
| 20260510111006 | 15 | 81 | 1.6 | 11.3 | 0.00 | 0.00 | 0.00 | 84 | 1031.3 |
| 20260510110502 | 15 | 65 | 4.8 | 11.3 | 0.00 | 0.00 | 0.00 | 84 | 1031.3 |
| 20260510110003 | 15 | 46 | 0.0 | 3.2 | 0.00 | 0.00 | 0.00 | 84 | 1031.3 |
| 20260510105601 | 15 | 55 | 0.0 | 3.2 | 0.00 | 0.00 | 0.00 | 84 | 1031.3 |
| 20260510105100 | 15 | 92 | 0.0 | 3.2 | 0.00 | 0.00 | 0.00 | 84 | 1031.3 |
| 20260510104611 | 15 | 144 | 0.0 | 3.2 | 0.00 | 0.00 | 0.00 | 84 | 1031.3 |
| 20260510104059 | 15 | 120 | 0.0 | 4.8 | 0.00 | 0.00 | 0.00 | 84 | 1031.3 |
| 20260510103559 | 15 | 104 | 0.0 | 4.8 | 0.00 | 0.00 | 0.00 | 84 | 1031.3 |
| 20260510103059 | 15 | 113 | 0.0 | 4.8 | 0.00 | 0.00 | 0.00 | 84 | 1031.3 |
| 20260510102559 | 15 | 102 | 0.0 | 4.8 | 0.00 | 0.00 | 0.00 | 84 | 1031.3 |
| 20260510102059 | 15 | 102 | 0.0 | 3.2 | 0.00 | 0.00 | 0.00 | 84 | 1031.3 |
| 20260510101604 | 15 | 108 | 0.0 | 3.2 | 0.00 | 0.00 | 0.00 | 84 | 1031.3 |
| 20260510101058 | 15 | 108 | 0.0 | 3.2 | 0.00 | 0.00 | 0.00 | 84 | 1031.3 |
| 20260510100558 | 15 | 91 | 0.0 | 3.2 | 0.00 | 0.00 | 0.00 | 84 | 1031.3 |
| 20260510100058 | 15 | 120 | 0.0 | 3.2 | 0.00 | 0.00 | 0.00 | 84 | 1031.3 |
| 20260510095557 | 15 | 117 | 0.0 | 3.2 | 0.00 | 0.00 | 0.00 | 84 | 1031.3 |
| 20260510095057 | 15 | 116 | 0.0 | 4.8 | 0.00 | 0.00 | 0.00 | 83 | 1031.3 |
| 20260510094612 | 16 | 108 | 0.0 | 4.8 | 0.00 | 0.00 | 0.00 | 82 | 1031.3 |
| 20260510094056 | 16 | 105 | 0.0 | 8.0 | 0.00 | 0.00 | 0.00 | 81 | 1031.3 |
| 20260510093556 | 16 | 120 | 0.0 | 14.5 | 0.00 | 0.00 | 0.00 | 81 | 1031.3 |
| 20260510093057 | 16 | 90 | 4.8 | 14.5 | 0.00 | 0.00 | 0.00 | 81 | 1031.3 |
| 20260510092559 | 16 | 118 | 0.0 | 8.0 | 0.00 | 0.00 | 0.00 | 81 | 1031.3 |
| 20260510092056 | 16 | 116 | 0.0 | 8.0 | 0.00 | 0.00 | 0.00 | 81 | 1031.3 |
| 20260510091557 | 15 | 112 | 0.0 | 8.0 | 0.00 | 0.00 | 0.00 | 82 | 1031.3 |
| 20260510091056 | 15 | 115 | 0.0 | 9.7 | 0.00 | 0.00 | 0.00 | 83 | 1031.3 |
| 20260510090556 | 15 | 75 | 0.0 | 6.4 | 0.00 | 0.00 | 0.00 | 83 | 1031.3 |
| 20260510090055 | 15 | 55 | 0.0 | 6.4 | 0.00 | 0.00 | 0.00 | 83 | 1031.3 |
| 20260510085554 | 15 | 73 | 0.0 | 6.4 | 0.00 | 0.00 | 0.00 | 82 | 1031.3 |
| 20260510085053 | 15 | 40 | 0.0 | 4.8 | 0.00 | 0.00 | 0.00 | 81 | 1031.3 |
| 20260510084601 | 16 | 47 | 0.0 | 4.8 | 0.00 | 0.00 | 0.00 | 80 | 1031.3 |
| 20260510084053 | 16 | 51 | 0.0 | 0.0 | 0.00 | 0.00 | 0.00 | 80 | 1031.3 |
| 20260510083552 | 16 | 38 | 0.0 | 0.0 | 0.00 | 0.00 | 0.00 | 80 | 1031.3 |
| 20260510083113 | 16 | 39 | 0.0 | 3.2 | 0.00 | 0.00 | 0.00 | 79 | 1031.3 |
| 20260510082551 | 16 | 30 | 0.0 | 3.2 | 0.00 | 0.00 | 0.00 | 79 | 1031.3 |
| 20260510082052 | 16 | 51 | 0.0 | 3.2 | 0.00 | 0.00 | 0.00 | 78 | 1031.3 |
| 20260510081610 | 16 | 47 | 1.6 | 3.2 | 0.00 | 0.00 | 0.00 | 78 | 1031.3 |
| 20260510081051 | 16 | 49 | 1.6 | 3.2 | 0.00 | 0.00 | 0.00 | 77 | 1031.3 |
| 20260510080549 | 16 | 97 | 0.0 | 0.0 | 0.00 | 0.00 | 0.00 | 77 | 1031.3 |
| 20260510080048 | 16 | 127 | 0.0 | 4.8 | 0.00 | 0.00 | 0.00 | 76 | 1031.3 |
| 20260510075548 | 16 | 127 | 0.0 | 4.8 | 0.00 | 0.00 | 0.00 | 76 | 1031.3 |
| 20260510075048 | 16 | 134 | 0.0 | 6.4 | 0.00 | 0.00 | 0.00 | 76 | 1031.3 |
| 20260510074551 | 16 | 133 | 1.6 | 6.4 | 0.00 | 0.00 | 0.00 | 76 | 1031.3 |
| 20260510074051 | 16 | 132 | 0.0 | 3.2 | 0.00 | 0.00 | 0.00 | 75 | 1031.3 |
| 20260510073547 | 16 | 53 | 0.0 | 8.0 | 0.00 | 0.00 | 0.00 | 75 | 1031.3 |
| 20260510073051 | 16 | 48 | 1.6 | 8.0 | 0.00 | 0.00 | 0.00 | 75 | 1031.3 |
| 20260510072547 | 16 | 49 | 1.6 | 4.8 | 0.00 | 0.00 | 0.00 | 74 | 1031.3 |
| 20260510072047 | 16 | 51 | 0.0 | 11.3 | 0.00 | 0.00 | 0.00 | 74 | 1031.3 |
| 20260510071547 | 16 | 47 | 4.8 | 11.3 | 0.00 | 0.00 | 0.00 | 74 | 1031.3 |
| 20260510071048 | 16 | 36 | 3.2 | 8.0 | 0.00 | 0.00 | 0.00 | 73 | 1031.3 |
| 20260510070544 | 17 | 31 | 4.8 | 6.4 | 0.00 | 0.00 | 0.00 | 71 | 1031.3 |
| 20260510070043 | 17 | 14 | 4.8 | 8.0 | 0.00 | 0.00 | 0.00 | 71 | 1031.3 |
| 20260510065546 | 17 | 36 | 4.8 | 8.0 | 0.00 | 0.00 | 0.00 | 70 | 1031.3 |
| 20260510065042 | 17 | 40 | 4.8 | 8.0 | 0.00 | 0.00 | 0.00 | 69 | 1031.3 |
| 20260510064544 | 17 | 41 | 4.8 | 9.7 | 0.00 | 0.00 | 0.00 | 69 | 1031.3 |
| 20260510064042 | 17 | 47 | 6.4 | 9.7 | 0.00 | 0.00 | 0.00 | 69 | 1031.3 |
| 20260510063542 | 17 | 44 | 3.2 | 8.0 | 0.00 | 0.00 | 0.00 | 68 | 1031.3 |
| 20260510063042 | 17 | 24 | 1.6 | 8.0 | 0.00 | 0.00 | 0.00 | 67 | 1031.3 |
| 20260510062542 | 17 | 47 | 4.8 | 8.0 | 0.00 | 0.00 | 0.00 | 67 | 1031.3 |
| 20260510062039 | 17 | 28 | 0.0 | 3.2 | 0.00 | 0.00 | 0.00 | 66 | 1031.3 |
| 20260510061549 | 18 | 281 | 0.0 | 0.0 | 0.00 | 0.00 | 0.00 | 65 | 1031.3 |
| 20260510061038 | 18 | 281 | 0.0 | 0.0 | 0.00 | 0.00 | 0.00 | 64 | 1031.3 |
| 20260510060537 | 18 | 281 | 0.0 | 0.0 | 0.00 | 0.00 | 0.00 | 64 | 1031.3 |
| 20260510060041 | 18 | 281 | 0.0 | 0.0 | 0.00 | 0.00 | 0.00 | 63 | 1031.3 |
| 20260510055534 | 18 | 281 | 0.0 | 0.0 | 0.00 | 0.03 | 0.00 | 61 | 1031.3 |
| 20260510055034 | 18 | 281 | 0.0 | 0.0 | 0.00 | 0.03 | 0.00 | 61 | 1031.3 |
| 20260510054533 | 18 | 281 | 0.0 | 1.6 | 0.00 | 0.03 | 0.00 | 61 | 1031.3 |
| 20260510054034 | 19 | 281 | 0.0 | 1.6 | 0.00 | 0.03 | 0.00 | 60 | 1031.3 |
| 20260510053532 | 19 | 1 | 0.0 | 0.0 | 0.00 | 0.03 | 0.00 | 59 | 1031.3 |
| 20260510053032 | 19 | 250 | 0.0 | 4.8 | 0.00 | 0.03 | 0.00 | 59 | 1031.3 |
| 20260510052531 | 19 | 236 | 0.0 | 4.8 | 0.00 | 0.03 | 0.00 | 59 | 1031.3 |
| 20260510052033 | 19 | 237 | 1.6 | 4.8 | 0.00 | 0.03 | 0.00 | 58 | 1031.3 |
| 20260510051529 | 19 | 257 | 1.6 | 4.8 | 0.00 | 0.03 | 0.00 | 58 | 1031.3 |
| 20260510051028 | 20 | 272 | 0.0 | 4.8 | 0.00 | 0.03 | 0.00 | 57 | 1031.3 |
| 20260510050527 | 20 | 264 | 1.6 | 4.8 | 0.00 | 0.03 | 0.00 | 57 | 1031.3 |
| 20260510050027 | 20 | 249 | 0.0 | 3.2 | 0.00 | 0.03 | 0.00 | 56 | 1031.3 |
| 20260510045526 | 20 | 218 | 0.0 | 3.2 | 0.00 | 0.03 | 0.03 | 56 | 1031.3 |
| 20260510045026 | 20 | 210 | 1.6 | 3.2 | 0.00 | 0.03 | 0.03 | 56 | 1031.3 |
| 20260510044526 | 20 | 137 | 0.0 | 3.2 | 0.00 | 0.03 | 0.03 | 55 | 1031.3 |
| 20260510044025 | 20 | 63 | 0.0 | 4.8 | 0.00 | 0.03 | 0.03 | 55 | 1031.3 |
| 20260510043526 | 20 | 30 | 1.6 | 4.8 | 0.00 | 0.03 | 0.03 | 55 | 1031.3 |
| 20260510043026 | 20 | 16 | 1.6 | 6.4 | 0.00 | 0.03 | 0.03 | 54 | 1031.3 |
| 20260510042526 | 20 | 20 | 1.6 | 6.4 | 0.00 | 0.03 | 0.03 | 54 | 1031.3 |
| 20260510042028 | 20 | 24 | 0.0 | 3.2 | 0.00 | 0.03 | 0.03 | 54 | 1031.3 |
| 20260510041533 | 20 | 4 | 1.6 | 6.4 | 0.00 | 0.03 | 0.03 | 54 | 1031.3 |
| 20260510041029 | 20 | 31 | 1.6 | 9.7 | 0.00 | 0.03 | 0.03 | 54 | 1031.3 |
| 20260510040525 | 20 | 21 | 6.4 | 9.7 | 0.00 | 0.03 | 0.03 | 54 | 1031.3 |
| 20260510040024 | 20 | 73 | 4.8 | 14.5 | 0.00 | 0.03 | 0.03 | 55 | 1031.3 |
| 20260510035524 | 20 | 44 | 4.8 | 19.3 | 0.00 | 0.61 | 0.03 | 55 | 1031.3 |
| 20260510035026 | 20 | 9 | 6.4 | 30.6 | 0.00 | 0.61 | 0.03 | 55 | 1031.3 |
| 20260510034528 | 18 | 54 | 17.7 | 30.6 | 0.00 | 0.61 | 0.03 | 62 | 1031.3 |
| 20260510034024 | 21 | 51 | 0.0 | 4.8 | 0.00 | 0.61 | 0.03 | 62 | 1031.3 |
| 20260510033526 | 21 | 242 | 0.0 | 4.8 | 0.00 | 0.61 | 0.03 | 48 | 1031.3 |
| 20260510033024 | 21 | 296 | 1.6 | 6.4 | 0.00 | 0.61 | 0.03 | 48 | 1031.3 |
| 20260510032523 | 21 | 264 | 0.0 | 4.8 | 0.00 | 0.61 | 0.03 | 48 | 1031.3 |
| 20260510032026 | 21 | 244 | 0.0 | 4.8 | 0.00 | 0.61 | 0.03 | 49 | 1031.3 |
| 20260510031524 | 21 | 205 | 0.0 | 6.4 | 0.00 | 0.61 | 0.03 | 49 | 1031.3 |
| 20260510031023 | 21 | 283 | 1.6 | 6.4 | 0.00 | 0.61 | 0.03 | 47 | 1031.3 |
| 20260510030523 | 21 | 266 | 1.6 | 8.0 | 0.00 | 0.61 | 0.03 | 47 | 1031.3 |
| 20260510030027 | 21 | 277 | 1.6 | 8.0 | 0.00 | 0.61 | 0.03 | 48 | 1031.3 |
| 20260510025523 | 21 | 278 | 1.6 | 4.8 | 0.00 | 1.09 | 0.03 | 47 | 1031.3 |
| 20260510025023 | 21 | 293 | 0.0 | 4.8 | 0.00 | 1.09 | 0.03 | 48 | 1031.3 |
| 20260510024532 | 21 | 295 | 0.0 | 8.0 | 0.00 | 1.09 | 0.03 | 47 | 1031.3 |
| 20260510024022 | 21 | 295 | 1.6 | 6.4 | 0.00 | 1.09 | 0.03 | 46 | 1031.3 |
| 20260510023522 | 21 | 275 | 0.0 | 4.8 | 0.00 | 1.09 | 0.03 | 46 | 1031.3 |
| 20260510023022 | 21 | 226 | 0.0 | 6.4 | 0.00 | 1.09 | 0.03 | 45 | 1031.3 |
| 20260510022522 | 22 | 275 | 1.6 | 6.4 | 0.00 | 1.09 | 0.03 | 45 | 1031.3 |
| 20260510022023 | 22 | 281 | 1.6 | 8.0 | 0.00 | 1.09 | 0.03 | 45 | 1031.3 |
| 20260510021529 | 22 | 295 | 1.6 | 8.0 | 0.00 | 1.09 | 0.03 | 45 | 1031.3 |
| 20260510021021 | 22 | 260 | 1.6 | 8.0 | 0.00 | 1.09 | 0.03 | 45 | 1031.3 |
| 20260510020522 | 22 | 276 | 3.2 | 9.7 | 0.00 | 1.09 | 0.03 | 45 | 1031.3 |
| 20260510020021 | 22 | 285 | 1.6 | 9.7 | 0.00 | 1.09 | 0.03 | 45 | 1031.3 |
| 20260510015521 | 22 | 292 | 3.2 | 8.0 | 0.00 | 1.12 | 0.03 | 45 | 1031.3 |
| 20260510015023 | 22 | 281 | 3.2 | 9.7 | 0.00 | 1.12 | 0.03 | 45 | 1031.3 |
| 20260510014521 | 22 | 275 | 3.2 | 9.7 | 0.00 | 1.12 | 0.03 | 44 | 1031.3 |
| 20260510014021 | 23 | 282 | 3.2 | 9.7 | 0.00 | 1.12 | 0.03 | 44 | 1031.3 |
| 20260510013521 | 23 | 289 | 3.2 | 9.7 | 0.00 | 1.12 | 0.03 | 43 | 1031.3 |
| 20260510013020 | 23 | 281 | 3.2 | 8.0 | 0.00 | 1.12 | 0.03 | 42 | 1031.3 |
| 20260510012521 | 23 | 273 | 3.2 | 8.0 | 0.00 | 1.12 | 0.03 | 42 | 1031.3 |
| 20260510012020 | 23 | 283 | 3.2 | 9.7 | 0.00 | 1.12 | 0.03 | 41 | 1031.3 |
| 20260510011521 | 23 | 289 | 3.2 | 9.7 | 0.00 | 1.12 | 0.03 | 41 | 1031.3 |
| 20260510011020 | 23 | 285 | 3.2 | 8.0 | 0.00 | 1.12 | 0.03 | 41 | 1031.3 |
| 20260510010520 | 23 | 297 | 3.2 | 8.0 | 0.00 | 1.12 | 0.03 | 40 | 1031.3 |
| 20260510010019 | 24 | 285 | 3.2 | 6.4 | 0.00 | 1.12 | 0.03 | 40 | 1031.3 |
| 20260510005519 | 24 | 307 | 0.0 | 6.4 | 0.00 | 1.12 | 0.03 | 39 | 1031.3 |
| 20260510005021 | 24 | 303 | 1.6 | 6.4 | 0.00 | 1.12 | 0.03 | 40 | 1031.3 |
| 20260510004519 | 24 | 288 | 1.6 | 6.4 | 0.00 | 1.12 | 0.03 | 39 | 1031.3 |
| 20260510004019 | 25 | 293 | 1.6 | 6.4 | 0.00 | 1.12 | 0.03 | 39 | 1031.3 |
| 20260510003519 | 25 | 273 | 3.2 | 6.4 | 0.00 | 1.12 | 0.03 | 38 | 1031.3 |
| 20260510003026 | 25 | 294 | 3.2 | 6.4 | 0.00 | 1.12 | 0.03 | 38 | 1031.3 |
| 20260510002518 | 25 | 288 | 3.2 | 6.4 | 0.00 | 1.12 | 0.03 | 39 | 1031.3 |
| 20260510002019 | 25 | 296 | 1.6 | 6.4 | 0.00 | 1.12 | 0.03 | 38 | 1031.3 |
| 20260510001520 | 25 | 274 | 3.2 | 6.4 | 0.00 | 1.12 | 0.03 | 38 | 1031.3 |
| 20260510001020 | 25 | 309 | 3.2 | 6.4 | 0.00 | 1.12 | 0.03 | 38 | 1031.3 |
| 20260510000520 | 26 | 285 | 4.8 | 9.7 | 0.00 | 1.12 | 0.03 | 37 | 1031.3 |
| 20260510000018 | 26 | 300 | 3.2 | 9.7 | 0.00 | 1.12 | 0.03 | 37 | 1031.3 |
| 20260509235518 | 26 | 316 | 4.8 | 9.7 | 0.00 | 1.12 | 0.03 | 37 | 1031.3 |
| 20260509235018 | 26 | 295 | 3.2 | 9.7 | 0.00 | 1.12 | 0.03 | 37 | 1031.3 |
| 20260509234531 | 26 | 300 | 3.2 | 11.3 | 0.00 | 1.12 | 0.03 | 35 | 1031.3 |
| 20260509234020 | 26 | 298 | 1.6 | 8.0 | 0.00 | 1.12 | 0.03 | 36 | 1031.3 |
| 20260509233517 | 26 | 310 | 3.2 | 6.4 | 0.00 | 1.12 | 0.03 | 34 | 1031.3 |
| 20260509233017 | 27 | 343 | 0.0 | 6.4 | 0.00 | 1.12 | 0.03 | 36 | 1031.3 |
| 20260509232518 | 26 | 342 | 1.6 | 9.7 | 0.00 | 1.12 | 0.03 | 34 | 1031.3 |
| 20260509232018 | 26 | 355 | 4.8 | 11.3 | 0.00 | 1.12 | 0.03 | 31 | 1031.3 |
| 20260509231516 | 26 | 339 | 3.2 | 11.3 | 0.00 | 1.12 | 0.03 | 33 | 1031.3 |
| 20260509231016 | 27 | 332 | 3.2 | 11.3 | 0.00 | 1.12 | 0.03 | 34 | 1031.3 |
| 20260509230516 | 26 | 360 | 3.2 | 11.3 | 0.00 | 1.12 | 0.03 | 32 | 1031.3 |
| 20260509230016 | 27 | 20 | 4.8 | 11.3 | 0.00 | 1.12 | 0.03 | 33 | 1031.3 |
| 20260509225515 | 27 | 300 | 3.2 | 11.3 | 0.00 | 1.12 | 0.03 | 33 | 1031.3 |
| 20260509225015 | 27 | 351 | 1.6 | 11.3 | 0.00 | 1.12 | 0.03 | 35 | 1031.3 |
| 20260509224515 | 27 | 353 | 3.2 | 12.9 | 0.00 | 1.12 | 0.03 | 34 | 1031.3 |
| 20260509224015 | 26 | 348 | 6.4 | 17.7 | 0.00 | 1.12 | 0.03 | 32 | 1031.3 |
| 20260509223517 | 27 | 330 | 8.0 | 17.7 | 0.00 | 1.12 | 0.03 | 33 | 1031.3 |
| 20260509223016 | 27 | 329 | 4.8 | 14.5 | 0.00 | 1.12 | 0.03 | 37 | 1031.3 |
| 20260509222515 | 27 | 7 | 3.2 | 11.3 | 0.00 | 1.12 | 0.03 | 34 | 1031.3 |
| 20260509222013 | 27 | 48 | 1.6 | 12.9 | 0.00 | 1.12 | 0.03 | 37 | 1031.3 |
| 20260509221514 | 27 | 360 | 0.0 | 17.7 | 0.00 | 1.12 | 0.03 | 37 | 1031.3 |
| 20260509221013 | 26 | 345 | 9.7 | 17.7 | 0.00 | 1.12 | 0.03 | 34 | 1031.3 |
| 20260509220512 | 27 | 343 | 6.4 | 14.5 | 0.00 | 1.12 | 0.03 | 34 | 1031.3 |
| 20260509220014 | 26 | 357 | 4.8 | 17.7 | 0.00 | 1.12 | 0.03 | 34 | 1031.3 |
| 20260509215516 | 26 | 333 | 4.8 | 16.1 | 0.00 | 1.12 | 0.03 | 33 | 1031.3 |
| 20260509215011 | 27 | 39 | 4.8 | 16.1 | 0.00 | 1.12 | 0.03 | 33 | 1031.3 |
| 20260509214512 | 26 | 352 | 6.4 | 16.1 | 0.00 | 1.12 | 0.03 | 32 | 1031.3 |
| 20260509214017 | 26 | 326 | 8.0 | 16.1 | 0.00 | 1.12 | 0.03 | 32 | 1031.3 |
| 20260509213513 | 26 | 6 | 4.8 | 17.7 | 0.00 | 1.12 | 0.03 | 34 | 1031.3 |
| 20260509213012 | 26 | 297 | 11.3 | 17.7 | 0.00 | 1.12 | 0.03 | 34 | 1031.3 |
| 20260509212513 | 27 | 282 | 8.0 | 16.1 | 0.00 | 1.12 | 0.03 | 33 | 1031.3 |
| 20260509212011 | 27 | 306 | 1.6 | 16.1 | 0.00 | 1.12 | 0.03 | 39 | 1031.3 |
| 20260509211511 | 26 | 360 | 8.0 | 16.1 | 0.00 | 1.12 | 0.03 | 34 | 1031.3 |
| 20260509211011 | 26 | 332 | 4.8 | 12.9 | 0.00 | 1.12 | 0.03 | 37 | 1031.3 |
| 20260509210510 | 26 | 326 | 6.4 | 14.5 | 0.00 | 1.12 | 0.03 | 35 | 1031.3 |
| 20260509210009 | 26 | 313 | 3.2 | 20.9 | 0.00 | 1.12 | 0.03 | 39 | 1031.3 |
| 20260509205508 | 26 | 360 | 6.4 | 20.9 | 0.00 | 1.12 | 0.03 | 36 | 1031.3 |
| 20260509205008 | 26 | 2 | 8.0 | 16.1 | 0.00 | 1.12 | 0.03 | 34 | 1031.3 |
| 20260509204508 | 26 | 15 | 3.2 | 16.1 | 0.00 | 1.12 | 0.03 | 35 | 1031.3 |
| 20260509204008 | 26 | 359 | 3.2 | 14.5 | 0.00 | 1.12 | 0.03 | 36 | 1031.3 |
| 20260509203507 | 26 | 8 | 6.4 | 16.1 | 0.00 | 1.12 | 0.03 | 36 | 1031.3 |
| 20260509203008 | 26 | 358 | 6.4 | 16.1 | 0.00 | 1.12 | 0.03 | 37 | 1031.3 |
| 20260509202507 | 26 | 359 | 8.0 | 16.1 | 0.00 | 1.12 | 0.03 | 39 | 1031.3 |
| 20260509202008 | 26 | 301 | 1.6 | 14.5 | 0.00 | 1.12 | 0.03 | 39 | 1031.3 |
| 20260509201506 | 26 | 323 | 6.4 | 24.1 | 0.00 | 1.12 | 0.03 | 36 | 1031.3 |
| 20260509201005 | 26 | 38 | 8.0 | 24.1 | 0.00 | 1.12 | 0.03 | 37 | 1031.3 |
| 20260509200508 | 26 | 10 | 6.4 | 16.1 | 0.00 | 1.12 | 0.03 | 38 | 1031.3 |
| 20260509200004 | 26 | 324 | 3.2 | 20.9 | 0.00 | 1.12 | 0.03 | 38 | 1031.3 |
| 20260509195504 | 26 | 323 | 8.0 | 19.3 | 0.00 | 1.12 | 0.03 | 36 | 1031.3 |
| 20260509195002 | 26 | 25 | 8.0 | 17.7 | 0.00 | 1.12 | 0.03 | 38 | 1031.3 |
| 20260509194503 | 26 | 30 | 8.0 | 19.3 | 0.00 | 1.12 | 0.03 | 38 | 1031.3 |
| 20260509194002 | 26 | 345 | 12.9 | 19.3 | 0.00 | 1.12 | 0.03 | 37 | 1031.3 |
| 20260509193504 | 25 | 326 | 3.2 | 22.5 | 0.00 | 1.12 | 0.03 | 40 | 1031.3 |
| 20260509193001 | 25 | 42 | 6.4 | 22.5 | 0.00 | 1.12 | 0.03 | 39 | 1031.3 |
| 20260509192501 | 25 | 1 | 8.0 | 22.5 | 0.00 | 1.12 | 0.03 | 39 | 1031.3 |
| 20260509192101 | 25 | 293 | 6.4 | 22.5 | 0.00 | 1.12 | 0.03 | 38 | 1031.3 |
| 20260509191605 | 25 | 1 | 8.0 | 22.5 | 0.00 | 1.12 | 0.03 | 40 | 1031.3 |
| 20260509191059 | 25 | 340 | 4.8 | 17.7 | 0.00 | 1.12 | 0.03 | 42 | 1031.3 |
| 20260509190559 | 25 | 312 | 6.4 | 17.7 | 0.00 | 1.12 | 0.03 | 41 | 1031.3 |
| 20260509190100 | 25 | 302 | 6.4 | 20.9 | 0.00 | 1.12 | 0.03 | 45 | 1031.3 |
| 20260509185556 | 25 | 350 | 9.7 | 20.9 | 0.00 | 1.12 | 0.03 | 43 | 1031.3 |
| 20260509185056 | 25 | 15 | 11.3 | 25.7 | 0.00 | 1.12 | 0.03 | 42 | 1031.3 |
| 20260509184648 | 25 | 33 | 8.0 | 25.7 | 0.00 | 1.12 | 0.03 | 41 | 1031.3 |
| 20260509184055 | 25 | 6 | 11.3 | 22.5 | 0.00 | 1.12 | 0.03 | 41 | 1031.3 |
| 20260509183555 | 25 | 328 | 9.7 | 19.3 | 0.00 | 1.12 | 0.03 | 44 | 1031.3 |
| 20260509183104 | 25 | 6 | 8.0 | 17.7 | 0.00 | 1.12 | 0.03 | 45 | 1031.3 |
| 20260509182555 | 25 | 28 | 4.8 | 20.9 | 0.00 | 1.12 | 0.03 | 45 | 1031.3 |
| 20260509182054 | 24 | 349 | 8.0 | 20.9 | 0.00 | 1.12 | 0.03 | 44 | 1031.3 |
| 20260509181554 | 25 | 347 | 4.8 | 19.3 | 0.00 | 1.12 | 0.03 | 45 | 1031.3 |
| 20260509181054 | 24 | 29 | 8.0 | 20.9 | 0.00 | 1.12 | 0.03 | 44 | 1031.3 |
| 20260509180553 | 24 | 18 | 9.7 | 20.9 | 0.00 | 1.12 | 0.03 | 43 | 1031.3 |
| 20260509180058 | 24 | 351 | 6.4 | 16.1 | 0.00 | 1.12 | 0.03 | 44 | 1031.3 |
| 20260509175551 | 24 | 326 | 3.2 | 14.5 | 0.00 | 1.12 | 0.03 | 49 | 1031.3 |
| 20260509175051 | 24 | 35 | 4.8 | 24.1 | 0.00 | 1.12 | 0.03 | 48 | 1031.3 |
| 20260509174550 | 23 | 323 | 11.3 | 24.1 | 0.00 | 1.12 | 0.03 | 46 | 1031.3 |
| 20260509174048 | 23 | 20 | 6.4 | 22.5 | 0.00 | 1.12 | 0.03 | 49 | 1031.3 |
| 20260509173548 | 23 | 18 | 9.7 | 22.5 | 0.00 | 1.12 | 0.03 | 47 | 1031.3 |
| 20260509173048 | 23 | 41 | 8.0 | 16.1 | 0.00 | 1.12 | 0.03 | 49 | 1031.3 |
| 20260509172548 | 23 | 3 | 3.2 | 14.5 | 0.00 | 1.12 | 0.03 | 52 | 1031.3 |
| 20260509172046 | 23 | 6 | 6.4 | 14.5 | 0.00 | 1.12 | 0.03 | 49 | 1031.3 |
| 20260509171544 | 23 | 340 | 6.4 | 16.1 | 0.00 | 1.12 | 0.03 | 54 | 1031.3 |
| 20260509171046 | 23 | 325 | 6.4 | 16.1 | 0.00 | 1.12 | 0.03 | 50 | 1031.3 |
| 20260509170543 | 23 | 348 | 6.4 | 12.9 | 0.00 | 1.12 | 0.03 | 55 | 1031.3 |
| 20260509170042 | 22 | 297 | 3.2 | 12.9 | 0.00 | 1.12 | 0.03 | 57 | 1031.3 |
| 20260509165540 | 22 | 359 | 6.4 | 12.9 | 0.00 | 1.12 | 0.03 | 58 | 1031.3 |
| 20260509165039 | 22 | 333 | 3.2 | 17.7 | 0.00 | 1.12 | 0.03 | 62 | 1031.3 |